Regional Weather Roundup
Issued by NWS Midland/Odessa, TX

Skip options and go directly to product.
Home | Oldest Version | Next Version | Current Version | All | Text Only | Save Text | Print | Product List | Glossary On

Skip product version selection by date and time.   
024
ASUS44 KMAF 300502
RWRMAF
MIDLAND AREA WEATHER ROUNDUP
NATIONAL WEATHER SERVICE MIDLAND TX
1200 AM CDT WED JUL 30 2014

...IN SOUTHWEST TEXAS AND SOUTHEAST NEW MEXICO...

CITY           SKY/WX    TMP DP  RH WIND       PRES   REMARKS
ALPINE         CLEAR     78  47  33 SE15G21   30.23R
ANDREWS        FAIR      76  64  68 SE16G23   30.11S
ARTESIA        MOCLDY    77  64  65 NW8       30.10R
BIG SPRING     PTCLDY    79  65  62 E17       30.10S
CARLSBAD       CLOUDY    84  49  29 E5        30.06S
DRYDEN           N/A     89  54  30 E10       30.04S
FORT STOCKTON  CLEAR     83  49  30 SE18G26   30.08S
GUAD PASS      CLOUDY    78  51  38 NE15      30.25S
HOBBS          CLOUDY    75  63  64 E14G20    30.13F
MARFA          CLEAR     75  48  38 E14       30.22R
MIDLAND AIRPK  PTCLDY    79  66  63 SE13      30.10S
MIDLAND INTL   PTCLDY    79  66  64 E13       30.08S
ODESSA         CLEAR     79  64  60 E13       30.10R
PECOS          CLEAR     86  50  28 SE13G21   30.04R
PRESIDIO       FAIR      89  54  29 NE10      30.02S
SEMINOLE       PTCLDY    74  63  69 SE13      30.12F
SNYDER         MOCLDY    72  69  90 SE8       30.10F
WINK           PTCLDY    87  50  27 S14       30.04R
$$
...OTHER STATIONS IN TEXAS...

CITY           SKY/WX    TMP DP  RH WIND       PRES   REMARKS
ABILENE        CLOUDY    75  63  66 SE14      30.07F
AMARILLO       MOCLDY    69  60  73 SE13      30.14F
AUSTIN         PTCLDY    77  69  76 CALM      30.05S
BROWNSVILLE    CLEAR     79  75  87 SE5       30.04R
CORPUS CHRISTI MOCLDY    79  74  84 SE8       30.03R
DALLAS FTW     MOCLDY    77  62  59 S3        30.05F
DEL RIO        CLEAR     88  55  32 E7        29.99R
EL PASO        MOCLDY    82  63  51 N5          N/A
HOUSTON INT    CLEAR     75  74  96 CALM      30.05R
LUBBOCK        CLOUDY    72  65  78 SE8       30.14S
SAN ANGELO     MOCLDY    80  66  62 E10       30.08S
SAN ANTONIO    MOCLDY    84  63  49 SE10      30.06R
WACO           PTCLDY    74  62  66 CALM      30.06S
WICHITA FALLS  NOT AVBL
$$
...OTHER LOCATIONS IN NEW MEXICO...

CITY           SKY/WX    TMP DP  RH WIND       PRES   REMARKS
ALAMAGORDO     MOCLDY    77  64  65 SW6       30.14S
ALBUQUERQUE    TSTM      68  61  78 SE15      30.24F
CANNON AFB     PTCLDY    68  64  88 S6        30.17F
CLOVIS         NOT AVBL
HOLLOMAN AFB   MOCLDY    75  66  73 S6        30.11F
ROSWELL        MOCLDY    74  68  81 CALM      30.10R
RUIDOSO        CLOUDY    64  57  77 SE3       30.35S
SANTA FE       CLOUDY    64  57  78 NW6       30.32R
TRUTH OR CONSE MOCLDY    71  62  73 SW5       30.18S
TUCUMCARI      CLOUDY    73  63  70 S10       30.13S THUNDER
$$

USA.gov is the U.S. government's official web portal to all federal, state and local government web resources and services.